Waarnemingen

Advertentie
Mijn weer
Bierset/Liege, België (6478): temperatuur & dauwpunt: 17.04.2019 08:00:00 - 23.04.2019 08:00:00 (CEST)Bierset/Liege, België (6478): windsnelheid & windstoten: 17.04.2019 08:00:00 - 23.04.2019 08:00:00 (CEST)Bierset/Liege, België (6478): windrichting: 17.04.2019 08:00:00 - 23.04.2019 08:00:00 (CEST)Bierset/Liege, België (6478): luchtdruk: 17.04.2019 08:00:00 - 23.04.2019 08:00:00 (CEST)Bierset/Liege, België (6478): zicht: 17.04.2019 08:00:00 - 23.04.2019 08:00:00 (CEST)
Datum & Tijd tt [°C] td [°C] ff [km/u] ff [kn] fx [km/u] fx [kn] dd ppp [hPa] vv [km]
23.04.2019 08:00:00 10,6 4,1 11 6 - - NO 999,2 10
23.04.2019 07:00:00 10,8 2,6 9 5 18 10 ONO 999,7 10
23.04.2019 06:00:00 11,7 2,2 8 4 25 14 O 1000,0 10
23.04.2019 05:00:00 12,0 2,3 13 7 - - ONO 1000,5 10
23.04.2019 04:00:00 12,3 2,7 15 8 18 10 ONO 1001,0 10
23.04.2019 03:00:00 13,7 2,5 9 5 18 10 O 1001,5 10
23.04.2019 02:00:00 14,9 2,8 13 7 - - O 1001,8 10
23.04.2019 01:00:00 15,6 3,2 15 8 22 12 O 1002,2 10
23.04.2019 00:00:00 16,8 3,8 15 8 29 16 O 1002,8 10
22.04.2019 23:00:00 18,7 2,7 16 9 - - O 1003,0 10
22.04.2019 22:00:00 19,8 1,4 11 6 25 14 O 1003,2 10
22.04.2019 21:00:00 20,8 2,1 13 7 29 16 O 1003,1 10
22.04.2019 20:00:00 22,3 0,3 15 8 - - OZO 1002,8 10
22.04.2019 19:00:00 23,2 3,0 16 9 36 19 O 1003,0 10
22.04.2019 18:00:00 24,1 1,3 15 8 32 18 OZO 1003,4 10
22.04.2019 17:00:00 23,8 2,1 21 11 - - O 1004,2 10
22.04.2019 16:00:00 23,9 -1,5 21 11 36 19 OZO 1004,9 10
22.04.2019 15:00:00 23,8 0,7 22 12 36 19 OZO 1005,8 10
22.04.2019 14:00:00 23,3 2,5 15 8 - - OZO 1006,4 10
22.04.2019 13:00:00 22,4 -0,5 21 11 61 33 OZO 1007,4 10
22.04.2019 12:00:00 22,1 -0,7 16 9 43 23 OZO 1008,3 10
22.04.2019 11:00:00 20,8 4,5 8 4 - - - 1009,1 10
22.04.2019 10:00:00 18,0 2,3 11 6 18 10 ZO 1009,8 10
22.04.2019 09:00:00 15,8 2,1 11 6 40 21 ZO 1010,4 10
22.04.2019 08:00:00 14,3 1,0 13 7 - - OZO 1010,6 10
22.04.2019 07:00:00 13,5 1,0 13 7 25 14 OZO 1010,8 10
22.04.2019 06:00:00 14,2 0,2 11 6 29 16 OZO 1011,2 10
22.04.2019 05:00:00 14,1 0,9 13 7 - - OZO 1011,9 10
22.04.2019 04:00:00 14,4 1,4 11 6 22 12 OZO 1012,6 10
22.04.2019 03:00:00 14,9 1,6 9 5 25 14 OZO 1013,1 10
22.04.2019 02:00:00 15,0 2,7 11 6 - - OZO 1013,7 10
22.04.2019 01:00:00 16,6 2,0 9 5 36 19 - 1014,1 10
22.04.2019 00:00:00 17,1 2,0 11 6 14 8 OZO 1014,5 10
21.04.2019 23:00:00 17,5 1,1 8 4 - - O 1014,8 10
21.04.2019 22:00:00 17,0 3,9 13 7 32 18 ONO 1015,1 10
21.04.2019 21:00:00 17,4 4,3 15 8 32 18 NO 1015,0 10
21.04.2019 20:00:00 19,9 3,5 16 9 - - NO 1014,9 10
21.04.2019 19:00:00 21,5 2,6 18 10 29 16 NO 1015,2 10
21.04.2019 18:00:00 22,3 2,9 21 11 32 18 NO 1015,9 10
21.04.2019 17:00:00 22,5 3,7 22 12 - - NO 1016,6 10
21.04.2019 16:00:00 22,5 3,8 24 13 36 19 NO 1017,1 10
21.04.2019 15:00:00 23,2 3,5 15 8 32 18 NO 1017,7 10
21.04.2019 14:00:00 22,3 8,6 15 8 - - NNO 1018,7 10
21.04.2019 13:00:00 20,8 7,8 13 7 18 10 NNO 1019,7 10
21.04.2019 12:00:00 19,0 5,7 9 5 14 8 NNO 1020,6 10
21.04.2019 11:00:00 17,0 5,5 8 4 - - NNO 1021,4 10
21.04.2019 10:00:00 15,6 4,2 9 5 11 6 NNO 1021,8 10
21.04.2019 09:00:00 14,0 6,5 4 2 7 4 - 1022,0 10
21.04.2019 08:00:00 10,5 4,7 4 2 - - - 1022,4 10
21.04.2019 07:00:00 9,3 3,3 2 1 7 4 - 1022,6 10
21.04.2019 06:00:00 10,4 4,0 2 1 14 8 - 1022,9 10
21.04.2019 05:00:00 11,4 3,5 4 2 - - - 1023,4 10
21.04.2019 04:00:00 11,9 3,6 9 5 14 8 ONO 1023,9 10
21.04.2019 03:00:00 13,1 3,7 9 5 32 18 ONO 1024,3 10
21.04.2019 02:00:00 13,5 4,0 11 6 - - NO 1024,8 27
21.04.2019 01:00:00 15,4 3,9 21 11 29 16 ONO 1025,1 10
21.04.2019 00:00:00 16,4 4,1 15 8 29 16 ONO 1025,4 10
20.04.2019 23:00:00 16,6 3,8 15 8 - - NO 1025,5 10
20.04.2019 22:00:00 17,7 3,3 15 8 18 10 NO 1025,3 10
20.04.2019 21:00:00 18,2 3,4 13 7 22 12 NO 1025,0 10
20.04.2019 20:00:00 19,8 4,9 15 8 - - NNO 1025,0 10
20.04.2019 19:00:00 21,7 4,7 18 10 32 18 NO 1025,2 10
20.04.2019 18:00:00 22,4 2,7 22 12 36 19 NO 1025,5 10
20.04.2019 17:00:00 22,8 3,8 21 11 - - NNO 1025,9 10
20.04.2019 16:00:00 22,7 3,7 26 14 40 21 NO 1026,4 10
20.04.2019 15:00:00 22,9 5,6 26 14 40 21 NO 1026,9 10
20.04.2019 14:00:00 22,6 7,1 21 11 - - NNO 1027,3 10
20.04.2019 13:00:00 21,2 6,8 16 9 25 14 NO 1027,9 10
20.04.2019 12:00:00 19,8 8,0 11 6 18 10 NNO 1028,3 10
20.04.2019 11:00:00 18,2 6,2 8 4 - - NNO 1028,6 10
20.04.2019 10:00:00 16,2 5,9 5 3 11 6 NNO 1028,9 10
20.04.2019 09:00:00 15,1 5,5 2 1 22 12 - 1028,8 10
20.04.2019 08:00:00 12,7 3,0 2 1 - - - 1028,6 10
20.04.2019 07:00:00 10,6 3,3 11 6 36 19 ZO 1028,4 10
20.04.2019 06:00:00 11,5 1,8 13 7 36 19 ZO 1028,2 10
20.04.2019 05:00:00 12,2 2,5 13 7 - - ZO 1028,4 10
20.04.2019 04:00:00 12,5 3,2 11 6 25 14 ZO 1028,3 10
20.04.2019 03:00:00 13,0 3,3 9 5 32 18 OZO 1028,1 10
20.04.2019 02:00:00 15,1 1,9 8 4 - - OZO 1028,2 10
20.04.2019 01:00:00 15,2 1,8 5 3 14 8 O 1028,3 10
20.04.2019 00:00:00 16,8 1,9 8 4 11 6 ZO 1028,0 10
19.04.2019 23:00:00 18,1 1,4 8 4 - - OZO 1027,7 10
19.04.2019 22:00:00 17,9 2,1 8 4 22 12 ONO 1027,4 10
19.04.2019 21:00:00 18,5 2,8 11 6 22 12 ONO 1026,9 10
19.04.2019 20:00:00 19,0 3,4 13 7 - - NO 1026,3 10
19.04.2019 19:00:00 22,1 2,5 21 11 36 19 NO 1025,9 10
19.04.2019 18:00:00 21,5 3,1 24 13 36 19 NO 1025,7 10
19.04.2019 17:00:00 22,7 4,3 22 12 - - NO 1025,6 10
19.04.2019 16:00:00 23,1 5,3 15 8 36 19 ONO 1025,7 10
19.04.2019 15:00:00 23,2 2,8 13 7 36 19 OZO 1026,0 10
19.04.2019 14:00:00 22,9 1,9 16 9 - - ZO 1026,0 10
19.04.2019 13:00:00 22,3 3,6 13 7 25 14 O 1026,0 10
19.04.2019 12:00:00 20,2 6,2 15 8 25 14 NO 1026,6 10
19.04.2019 11:00:00 17,5 7,2 13 7 - - NNO 1027,0 10
19.04.2019 10:00:00 16,8 4,8 8 4 25 14 ONO 1026,8 10
19.04.2019 09:00:00 14,7 3,9 9 5 32 18 - 1026,7 10
19.04.2019 08:00:00 11,9 4,0 8 4 - - OZO 1026,7 10
19.04.2019 07:00:00 11,3 2,4 11 6 36 19 O 1026,2 10
19.04.2019 06:00:00 11,6 2,7 11 6 43 23 O 1025,8 10
19.04.2019 05:00:00 11,6 2,6 11 6 - - ONO 1025,7 10
19.04.2019 04:00:00 13,0 2,7 13 7 18 10 O 1025,4 10
19.04.2019 03:00:00 12,8 3,5 13 7 22 12 ONO 1025,3 10
19.04.2019 02:00:00 13,3 3,7 9 5 - - ONO 1025,2 10
19.04.2019 01:00:00 15,0 3,2 13 7 22 12 O 1024,9 10
19.04.2019 00:00:00 15,6 3,1 11 6 22 12 O 1024,6 10
18.04.2019 23:00:00 16,2 2,7 9 5 - - O 1024,3 10
18.04.2019 22:00:00 16,4 3,8 8 4 14 8 ONO 1024,0 10
18.04.2019 21:00:00 18,1 3,2 9 5 25 14 O 1023,3 10
18.04.2019 20:00:00 19,4 3,2 15 8 - - O 1022,6 10
18.04.2019 19:00:00 19,9 4,1 22 12 43 23 O 1022,2 10
18.04.2019 18:00:00 20,3 4,5 26 14 40 21 ONO 1022,2 10
18.04.2019 17:00:00 20,3 4,5 22 12 - - ONO 1022,1 10
18.04.2019 16:00:00 20,3 4,0 22 12 43 23 ONO 1022,3 10
18.04.2019 15:00:00 20,1 3,9 26 14 40 21 ONO 1022,4 10
18.04.2019 14:00:00 20,4 1,6 15 8 - - O 1022,6 10
18.04.2019 13:00:00 19,3 0,3 16 9 43 23 O 1023,1 10
18.04.2019 12:00:00 18,8 1,9 15 8 29 16 OZO 1023,5 10
18.04.2019 11:00:00 17,3 3,0 16 9 - - O 1023,9 10
18.04.2019 10:00:00 15,5 2,1 11 6 25 14 OZO 1023,7 10
18.04.2019 09:00:00 13,6 1,6 11 6 29 16 - 1023,5 10
18.04.2019 08:00:00 11,6 1,4 11 6 - - ZO 1023,2 10
18.04.2019 07:00:00 10,7 1,4 13 7 25 14 OZO 1023,0 10
18.04.2019 06:00:00 10,3 4,0 11 6 29 16 ZO 1022,5 10
18.04.2019 05:00:00 10,8 5,0 8 4 - - OZO 1022,8 10
18.04.2019 04:00:00 9,8 7,2 11 6 14 8 ONO 1022,9 10
18.04.2019 03:00:00 10,4 6,6 5 3 25 14 O 1022,5 10
18.04.2019 02:00:00 9,9 7,6 5 3 - - ZO 1022,8 10
18.04.2019 01:00:00 11,2 7,4 9 5 14 8 O 1022,8 10
18.04.2019 00:00:00 11,8 7,4 4 2 11 6 OZO 1022,6 10
17.04.2019 23:00:00 11,7 8,3 8 4 - - O 1022,5 10
17.04.2019 22:00:00 10,8 8,0 11 6 14 8 NO 1022,4 10
17.04.2019 21:00:00 11,7 7,9 13 7 14 8 NO 1021,9 10
17.04.2019 20:00:00 12,4 8,0 8 4 - - NNO 1021,8 10
17.04.2019 19:00:00 13,6 7,6 11 6 14 8 NNO 1021,7 10
17.04.2019 18:00:00 14,2 6,6 2 1 11 6 - 1021,7 10
17.04.2019 17:00:00 13,8 5,8 4 2 - - - 1021,9 10
17.04.2019 16:00:00 13,8 6,8 4 2 18 10 - 1021,9 10
17.04.2019 15:00:00 14,0 6,2 5 3 18 10 - 1021,7 10
17.04.2019 14:00:00 13,6 7,2 5 3 - - Z 1021,8 10
17.04.2019 13:00:00 12,9 6,9 8 4 18 10 ZZW 1021,9 9
17.04.2019 12:00:00 12,5 7,4 9 5 18 10 ZZW 1021,8 8
17.04.2019 11:00:00 11,9 8,0 5 3 - - ZW 1021,6 6
17.04.2019 10:00:00 10,7 8,1 8 4 18 10 ZZW 1021,2 6
17.04.2019 09:00:00 10,2 8,5 9 5 11 6 ZW 1020,7 6
17.04.2019 08:00:00 9,9 9,0 5 3 - - ZZO 1020,3 8

tt = temperatuur
td = dauwpunt
ff = windsnelheid
fx = windstoten
dd = windrichting
ppp = luchtdruk
vv = zicht

Weerstations in de omgeving